Home   Weather   Modena   Past weeks

Flag for Italy Past Weather in Modena, Italy — Yesterday and Last 2 Weeks

Now
73 °F

Clear.


Feels Like: 77 °F
Forecast: 60 / 76 °F
Wind: 8 mph from South

Location: Bologna / Borgo Panigale

Current Time: May 24, 2017 at 11:35:06 pm

Latest Report: May 24, 2017 at 10:50 pm


Visibility: 10 mi

Pressure: 29.92 "Hg

Humidity: 53%

Dew Point: 55 °F

Location of ModenaLocation

Past Weather in Modena — Graph

°F

Modena Temperature Yesterday

Maximum temperature yesterday: 84 °F (at 3:50 pm)
Minimum temperature yesterday: 61 °F (at 4:50 am)
Average temperature yesterday: 73 °F

High & Low Weather Summary for the Past Weeks

 TemperatureHumidityPressure
High84 °F (May 23, 3:50 pm)100% (May 10, 5:20 am)30.36 "Hg (May 10, 5:20 am)
Low46 °F (May 10, 4:50 am)32% (May 17, 2:20 pm)29.68 "Hg (May 11, 7:50 pm)
Average67 °F64%30.02 "Hg
* Reported May 9 10:20 pm — May 24 10:20 pm, Modena. Weather by CustomWeather, © 2017

Note: Actual official high and low records may vary slightly from our data, if they occured in-between our weather recording intervals... More about our weather records

Advertising

Modena Weather History for the Previous 24 Hours

Scroll right to see more
 ConditionsComfort  
Time TempWeatherWind HumidityBarometerVisibility
10:20 pm
Wed, May 24
75 °FClear.7 mph50%29.95 "Hg10 mi
9:50 pm75 °FPassing clouds.6 mph54%29.95 "HgN/A
9:20 pm77 °FClear.9 mph51%29.95 "Hg10 mi
8:50 pm77 °FClear.6 mph57%29.92 "Hg10 mi
8:20 pm77 °FSunny.2 mph61%29.95 "Hg10 mi
7:50 pm81 °FSunny.No wind58%29.95 "Hg10 mi
7:20 pm82 °FSunny.2 mph42%29.95 "Hg10 mi
6:50 pm82 °FPassing clouds.3 mph45%29.95 "HgN/A
6:20 pm84 °FPassing clouds.5 mph45%29.95 "HgN/A
5:50 pm84 °FPassing clouds.6 mph45%29.95 "HgN/A
5:20 pm84 °FPassing clouds.6 mph40%29.95 "HgN/A
4:50 pm84 °FPassing clouds.8 mph43%29.95 "HgN/A
4:20 pm84 °FSunny.5 mph43%29.98 "Hg10 mi
3:50 pm82 °FPassing clouds.7 mph40%29.98 "HgN/A
3:20 pm84 °FPassing clouds.6 mph40%29.98 "HgN/A
2:50 pm82 °FPassing clouds.5 mph40%30.01 "HgN/A
2:20 pm82 °FPassing clouds.6 mph42%30.01 "HgN/A
1:50 pm81 °FPassing clouds.7 mph42%30.01 "HgN/A
1:20 pm79 °FPassing clouds.6 mph48%30.01 "HgN/A
12:50 pm77 °FPassing clouds.5 mph54%30.04 "HgN/A
12:20 pm77 °FScattered clouds.6 mph54%30.04 "HgN/A
11:50 am75 °FPartly sunny.5 mph54%30.04 "HgN/A
11:20 am75 °FPartly sunny.3 mph57%30.04 "HgN/A
10:50 am73 °FPartly sunny.5 mph61%30.04 "HgN/A
10:20 am72 °FPartly sunny.3 mph65%30.04 "HgN/A
9:50 am72 °FScattered clouds.3 mph57%30.07 "HgN/A
9:20 am72 °FScattered clouds.6 mph61%30.07 "HgN/A
8:50 am70 °FPassing clouds.5 mph64%30.04 "HgN/A
8:20 am70 °FPassing clouds.6 mph60%30.04 "HgN/A
7:50 am68 °FScattered clouds.8 mph60%30.04 "HgN/A
7:20 am66 °FSunny.7 mph64%30.04 "Hg10 mi
6:50 am64 °FSunny.7 mph68%30.04 "Hg10 mi
6:20 am64 °FSunny.7 mph64%30.04 "Hg10 mi
5:50 am64 °FSunny.9 mph64%30.04 "Hg10 mi
5:20 am64 °FClear.9 mph64%30.01 "Hg10 mi
4:50 am66 °FClear.8 mph60%30.01 "Hg10 mi
4:20 am66 °FClear.2 mph60%30.01 "Hg10 mi
3:20 am66 °FClear.8 mph60%30.01 "Hg10 mi
2:50 am68 °FClear.9 mph56%30.01 "Hg10 mi
2:20 am68 °FClear.9 mph56%30.01 "Hg10 mi
1:50 am68 °FClear.8 mph53%30.04 "Hg10 mi
1:20 am70 °FClear.8 mph53%30.04 "Hg10 mi
12:50 am70 °FClear.8 mph53%30.04 "Hg10 mi
12:20 am72 °FClear.9 mph50%30.04 "Hg10 mi
11:50 pm
Tue, May 23
72 °FClear.8 mph50%30.01 "Hg10 mi
11:20 pm72 °FClear.8 mph53%30.01 "Hg10 mi
Weather by CustomWeather, © 2017

See weather overviewHow to use our weather pages